Year,Month,Day,Hour,Minute,Value (Times are PST for temperature in C)
2012,04,29,13,20,9.70
2012,04,29,13,21,9.70
2012,04,29,13,22,9.70
2012,04,29,13,23,9.70
2012,04,29,13,24,9.70
2012,04,29,13,25,9.80
2012,04,29,13,26,9.80
2012,04,29,13,27,9.80
2012,04,29,13,28,9.80
2012,04,29,13,29,9.80
2012,04,29,13,30,9.80
2012,04,29,13,31,9.80
2012,04,29,13,32,9.80
2012,04,29,13,33,9.80
2012,04,29,13,34,9.80
2012,04,29,13,35,9.80
2012,04,29,13,36,9.90
2012,04,29,13,37,9.90
2012,04,29,13,38,9.90
2012,04,29,13,39,9.90
2012,04,29,13,40,9.90
2012,04,29,13,41,9.90
2012,04,29,13,42,9.90
2012,04,29,13,43,9.90
2012,04,29,13,44,9.90
2012,04,29,13,45,9.90
2012,04,29,13,46,9.80
2012,04,29,13,47,9.90
2012,04,29,13,48,9.90
2012,04,29,13,49,9.90
2012,04,29,13,50,9.90
2012,04,29,13,51,9.90
2012,04,29,13,52,9.90
2012,04,29,13,53,10.00
2012,04,29,13,54,10.00
2012,04,29,13,55,10.00
2012,04,29,13,56,10.10
2012,04,29,13,57,10.10
2012,04,29,13,58,10.10
2012,04,29,13,59,10.10
2012,04,29,14,00,10.10
2012,04,29,14,01,10.10
2012,04,29,14,02,10.10
2012,04,29,14,03,10.10
2012,04,29,14,04,10.10
2012,04,29,14,05,10.10
2012,04,29,14,06,10.10
2012,04,29,14,07,10.10
2012,04,29,14,08,10.10
2012,04,29,14,09,10.10
2012,04,29,14,10,10.10
2012,04,29,14,11,10.10
2012,04,29,14,12,10.10
2012,04,29,14,28,10.40
2012,04,29,14,29,10.40
2012,04,29,14,30,10.50
2012,04,29,14,31,10.50
2012,04,29,14,32,10.60
2012,04,29,14,33,10.60
2012,04,29,14,34,10.60
2012,04,29,14,35,10.70
2012,04,29,14,36,10.70
2012,04,29,14,37,10.70
2012,04,29,14,38,10.80
2012,04,29,14,39,10.80
2012,04,29,14,40,10.90
2012,04,29,14,41,11.00
2012,04,29,14,42,11.10
2012,04,29,14,43,11.20
2012,04,29,14,44,11.20
2012,04,29,14,45,11.20
2012,04,29,14,46,11.30
2012,04,29,14,47,11.40
2012,04,29,14,48,11.50
2012,04,29,14,49,11.50
2012,04,29,14,50,11.60
2012,04,29,14,51,11.60
2012,04,29,14,52,11.60
2012,04,29,14,53,11.70
2012,04,29,14,54,11.70
2012,04,29,14,55,11.80
2012,04,29,14,56,11.80
2012,04,29,14,57,11.80
2012,04,29,14,58,11.90
2012,04,29,14,59,11.90
2012,04,29,15,00,11.90
2012,04,29,15,01,11.90
2012,04,29,15,02,11.90
2012,04,29,15,03,12.00
2012,04,29,15,04,12.00
2012,04,29,15,05,12.10
2012,04,29,15,06,12.10
2012,04,29,15,07,12.20
2012,04,29,15,08,12.20
2012,04,29,15,09,12.20
2012,04,29,15,10,12.20
2012,04,29,15,11,12.20
2012,04,29,15,12,12.20
2012,04,29,15,13,12.10
2012,04,29,15,14,12.10
2012,04,29,15,15,12.10
2012,04,29,15,16,12.10
2012,04,29,15,17,12.20
2012,04,29,15,18,12.20
2012,04,29,15,19,12.20
2012,04,29,15,20,12.20
2012,04,29,15,21,12.20
2012,04,29,15,22,12.20
2012,04,29,15,23,12.20
2012,04,29,15,24,12.20
2012,04,29,15,25,12.20
2012,04,29,15,26,12.20
2012,04,29,15,27,12.20
2012,04,29,15,28,12.30
2012,04,29,15,29,12.30
2012,04,29,15,30,12.30
2012,04,29,15,31,12.30
2012,04,29,15,32,12.30
2012,04,29,15,33,12.30
2012,04,29,15,34,12.30
2012,04,29,15,35,12.30
2012,04,29,15,36,12.30
2012,04,29,15,37,12.30
2012,04,29,15,38,12.30
2012,04,29,15,39,12.30
2012,04,29,15,40,12.30
2012,04,29,15,41,12.30
2012,04,29,15,42,12.30
2012,04,29,15,43,12.30
2012,04,29,15,44,12.30
2012,04,29,15,45,12.30
2012,04,29,15,46,12.30
2012,04,29,15,47,12.30
2012,04,29,15,48,12.40
2012,04,29,15,49,12.40
2012,04,29,15,50,12.40
2012,04,29,15,51,12.30
2012,04,29,15,52,12.30
2012,04,29,15,53,12.30
2012,04,29,15,54,12.30
2012,04,29,15,55,12.30
2012,04,29,15,56,12.30
2012,04,29,15,57,12.20
2012,04,29,15,58,12.20
2012,04,29,15,59,12.20
2012,04,29,16,00,12.20
2012,04,29,16,01,12.20
2012,04,29,16,02,12.30
2012,04,29,16,03,12.30
2012,04,29,16,04,12.30
2012,04,29,16,05,12.30
2012,04,29,16,06,12.30
2012,04,29,16,07,12.30
2012,04,29,16,08,12.30
2012,04,29,16,09,12.30
2012,04,29,16,10,12.20
2012,04,29,16,11,12.20
2012,04,29,16,12,12.20
2012,04,29,16,13,12.20
2012,04,29,16,14,12.20
2012,04,29,16,15,12.20
2012,04,29,16,16,12.20
2012,04,29,16,17,12.10
2012,04,29,16,18,12.10
2012,04,29,16,19,12.10
2012,04,29,16,20,12.10
2012,04,29,16,21,12.10
2012,04,29,16,22,12.10
2012,04,29,16,23,12.10
2012,04,29,16,24,12.10
2012,04,29,16,25,12.10
2012,04,29,16,26,12.10
2012,04,29,16,27,12.00
2012,04,29,16,28,11.90
2012,04,29,16,29,11.90
2012,04,29,16,30,11.90
2012,04,29,16,31,11.90
2012,04,29,16,32,11.80
2012,04,29,16,33,11.80
2012,04,29,16,34,11.80
2012,04,29,16,35,11.80
2012,04,29,16,36,11.80
2012,04,29,16,37,11.80
2012,04,29,16,38,11.80
2012,04,29,16,39,11.80
2012,04,29,16,40,11.80
2012,04,29,16,41,11.80
2012,04,29,16,42,11.90
2012,04,29,16,43,11.80
2012,04,29,16,44,11.80
2012,04,29,16,45,11.80
2012,04,29,16,46,11.80
2012,04,29,16,47,11.90
2012,04,29,16,48,11.90
2012,04,29,16,49,11.80
2012,04,29,16,50,11.80
2012,04,29,16,51,11.80
2012,04,29,16,52,11.80
2012,04,29,16,53,11.80
2012,04,29,16,54,11.70
2012,04,29,16,55,11.70
2012,04,29,16,56,11.70
2012,04,29,16,57,11.70
2012,04,29,16,58,11.70
2012,04,29,16,59,11.70
2012,04,29,17,00,11.70
2012,04,29,17,01,11.70
2012,04,29,17,02,11.70
2012,04,29,17,03,11.70
2012,04,29,17,04,11.70
2012,04,29,17,05,11.70
2012,04,29,17,06,11.70
2012,04,29,17,07,11.70
2012,04,29,17,08,11.70
2012,04,29,17,09,11.70
2012,04,29,17,10,11.70
2012,04,29,17,11,11.70
2012,04,29,17,12,11.70
2012,04,29,17,13,11.70
2012,04,29,17,14,11.70
2012,04,29,17,15,11.70
2012,04,29,17,16,11.70
2012,04,29,17,17,11.70
2012,04,29,17,18,11.70
2012,04,29,17,19,11.70
2012,04,29,17,37,11.60
2012,04,29,17,38,11.60
2012,04,29,17,39,11.60
2012,04,29,17,40,11.60
2012,04,29,17,41,11.60
2012,04,29,17,42,11.60
2012,04,29,17,43,11.70
2012,04,29,17,44,11.60
2012,04,29,17,45,11.60
2012,04,29,17,46,11.60
2012,04,29,17,47,11.60
2012,04,29,17,48,11.60
2012,04,29,17,49,11.60
2012,04,29,17,50,11.60
2012,04,29,17,51,11.60
2012,04,29,17,52,11.60
2012,04,29,17,53,11.60
2012,04,29,17,54,11.60
2012,04,29,17,55,11.60
2012,04,29,17,56,11.60
2012,04,29,17,57,11.60
2012,04,29,17,58,11.60
